Meath Environmental Platform

Observations for Trim Patrick St

Time AQI Temp °C Hum % Pres Pa CO μg/m³ H₂S μg/m³ NO μg/m³ NO₂ μg/m³ O₃ μg/m³ SO₂ μg/m³ PM1 μg/m³ PM2.5 μg/m³ PM10 μg/m³
Friday 31 July 2026
06:06 2 10 83 38,460 0.45 1.97 4.21 24.54 39.56 0 4.57 7.11 7.83
06:05 2 10 83 38,460 0.44 0.37 4.24 19.99 27.93 0 3.71 7.12 7.83
06:04 2 9.9 83 38,460 0.45 2.12 4.29 21.27 31.28 0 4.57 7.82 8.6
06:03 2 9.9 82 38,460 0.45 2.78 4.39 25.95 30.9 0 4.57 7.19 7.9
06:02 2 9.9 82 38,460 0.46 2.94 4.37 39.49 39.61 0 4.57 7.15 7.86
06:01 2 9.9 82 38,460 0.45 2.09 4.35 34.1 21.17 0 3.71 7.15 7.86
06:00 2 9.9 83 38,460 0.49 4.79 4.36 80.2 0 2.03 4.57 7.83 8.61
05:59 2 9.9 82 38,460 0.48 1.91 4.49 20.49 31.4 0 4.57 7.14 7.86
05:58 2 9.9 82 38,460 0.48 2.6 4.27 22.36 35.28 0 3.71 7.16 7.87
05:57 2 9.9 82 38,460 0.45 2.12 4.2 27.68 37.88 0 3.71 7.84 8.62
05:56 2 9.9 82 38,460 0.44 1.78 4.16 30.55 16.22 0 3.71 7.16 7.87
05:55 2 9.9 82 38,460 0.43 0.34 4.16 15.12 23.43 0 3.71 7.86 8.65
05:54 2 9.9 82 38,460 0.44 1.14 4.35 19.28 35.81 0 3.71 6.47 7.12
05:53 2 9.9 82 38,460 0.43 0.24 4.32 19.48 24.87 0 4.57 9.26 10.18
05:52 2 9.9 82 38,460 0.43 0 4.36 15.72 26.95 0 4.57 7.17 7.89
05:51 2 9.9 82 38,460 0.42 0.32 4.44 15.3 23.82 0 3.71 7.19 7.9
05:50 2 9.9 82 38,460 0.42 0.96 4.48 21.92 41.24 0 4.57 7.9 8.69
05:49 2 9.9 82 38,460 0.42 0.37 4.46 16.09 25.85 0 3.71 6.49 7.14
05:48 2 9.9 82 38,460 0.43 0.22 4.42 16.68 22.01 0 4.57 7.19 7.9
05:47 2 9.9 82 38,460 0.42 0.32 4.39 21.09 36.64 0 4.57 7.9 8.69